FENGYUN 1C DEB, 30346

Orbit data source: Space-Track

FENGYUN 1C DEB, 30346 is space debris in SSO originally from a launch on Mon, 10 May 1999 UTC launched from the Taiyaun Space Center, China (TSC). Fengyun 1C debris stems from the Chinese weather satellite Fengyun-1C, which was intentionally destroyed by a Chinese anti-satellite missile in 2007. This event dramatically increased the amount of space debris, with thousands of trackable fragments posing hazards to satellites and human spaceflight. The Fengyun 1C debris cloud has become a focal point in discussions about space sustainability and the need for international regulations to prevent the creation of new debris.

Loading next visibility...
Identifier
30346, 1999-025ABH
Orbit
SSO
Country
Flag of CNCN / PRC
Related business
Manufacturer
Unknown
Mission
Spacecraft
Bus & Motor
Unknown
Mass
Unknown
Launch date (UTC)
1999-05-10 (27 years ago)
Launch vehicle
Unknown
Launch site
Taiyaun Space Center, China (TSC)
Object type
Payload
Rocket body
Debris
Shape & HBR
Unknown shape, 0.1 m
Radar Cross Section
Medium (>0.1 m² and <1 m²)

Expand to show TLE details & history
Last TLE update: 17 hours ago

TLE from 17 hours ago
0 FENGYUN 1C DEB
1 30346U 99025ABH 26167.89537350  .00003733  00000-0  12778-2 0  9996
2 30346  98.8094 273.3139 0055417 192.9679 289.4355 14.35991159   822
Epoch: 2026-06-16T21:29Z
TLE epoch observation values (Epoch: 2026-06-16T21:29:20.270Z)
Latitude
57.22329°
Longitude
-120.32985°
Altitude
768.355 km
Speed
7.482 km/s
True Right ascension
07h 08m 39s
True Declination
57° 04' 00"
Sunlit
Object was in daylight at epoch
Visualization orbit readout
Latitude
Unknown
Longitude
Unknown
Altitude
Unknown
Speed
Unknown
Apparent Right ascension
Unknown
Apparent Declination
Unknown
Sunlit
N/A
Visualization observer readout
Local Sidereal Time
00:57:09
Azimuth
Unknown
Elevation
Unknown
Doppler factor
Unknown
Orbital elements
Apogee altitude
808.523 km
Perigee altitude
729.31 km
Semi-major axis
7,147.053 km
Eccentricity
0.00554
Inclination
98.8094°
RAAN
273.3139°
Arg. of periapsis
192.9679°
True anomaly
288.83528°
Mean anomaly
289.4355°
Eccentric anomaly
289.13553°
Mean motion
3.59213 °/min
Orbital period
100.22 mins
BSTAR
0.0012778
Loading maneuver chart data...
Computing Atmospheric mass density...

Documentation

Showing up to 5 results
|